| time (UTC) | temp F | wind direction | speed knots | gust knots | rain 1hr in | rain 24hr in | rain mn in | humidity % | barometer mb |
| 20260509020405 | 75 | 137 | 0.0 | 2.6 | 0.00 | 0.04 | 0.04 | 88 | 1009.2 |
| 20260509015904 | 75 | 135 | 0.9 | 2.6 | 0.00 | 0.04 | 0.04 | 88 | 1009.0 |
| 20260509015405 | 75 | 135 | 0.9 | 6.1 | 0.00 | 0.04 | 0.04 | 88 | 1009.1 |
| 20260509014905 | 75 | 119 | 1.7 | 6.1 | 0.00 | 0.04 | 0.04 | 88 | 1009.0 |
| 20260509013905 | 75 | 133 | 0.9 | 7.0 | 0.00 | 0.04 | 0.04 | 88 | 1008.8 |
| 20260509013404 | 75 | 147 | 2.6 | 7.0 | 0.00 | 0.04 | 0.04 | 87 | 1009.1 |
| 20260509012903 | 75 | 119 | 1.7 | 7.0 | 0.00 | 0.04 | 0.04 | 87 | 1009.0 |
| 20260509012404 | 75 | 139 | 1.7 | 7.0 | 0.00 | 0.04 | 0.04 | 87 | 1009.1 |
| 20260509011903 | 75 | 122 | 1.7 | 5.2 | 0.00 | 0.04 | 0.04 | 87 | 1008.9 |
| 20260509011404 | 75 | 156 | 1.7 | 5.2 | 0.00 | 0.04 | 0.04 | 87 | 1009.1 |
| 20260509010904 | 75 | 152 | 0.9 | 6.1 | 0.00 | 0.04 | 0.04 | 87 | 1009.2 |
| 20260509010405 | 75 | 138 | 0.9 | 6.1 | 0.00 | 0.04 | 0.04 | 87 | 1009.3 |
| 20260509005904 | 75 | 127 | 1.7 | 6.1 | 0.00 | 0.04 | 0.04 | 87 | 1008.9 |
| 20260509005403 | 75 | 120 | 0.9 | 4.3 | 0.00 | 0.04 | 0.04 | 87 | 1009.1 |
| 20260509004904 | 75 | 123 | 1.7 | 6.1 | 0.00 | 0.04 | 0.04 | 87 | 1009.0 |
| 20260509003904 | 75 | 140 | 4.3 | 7.0 | 0.00 | 0.04 | 0.04 | 86 | 1009.0 |
| 20260509003405 | 75 | 128 | 1.7 | 4.3 | 0.00 | 0.04 | 0.04 | 86 | 1009.2 |
| 20260509002905 | 75 | 102 | 0.9 | 2.6 | 0.00 | 0.04 | 0.04 | 86 | 1009.1 |
| 20260509002405 | 75 | 62 | 1.7 | 4.3 | 0.00 | 0.04 | 0.04 | 86 | 1009.2 |
| 20260509001904 | 75 | 93 | 1.7 | 7.0 | 0.00 | 0.04 | 0.04 | 86 | 1009.1 |
| 20260509001404 | 75 | 95 | 2.6 | 7.0 | 0.00 | 0.04 | 0.04 | 86 | 1008.6 |
| 20260509000903 | 75 | 151 | 1.7 | 6.1 | 0.00 | 0.04 | 0.04 | 86 | 1008.6 |
| 20260509000403 | 75 | 135 | 1.7 | 6.1 | 0.00 | 0.04 | 0.04 | 85 | 1008.7 |
| 20260508235905 | 75 | 107 | 0.9 | 5.2 | 0.00 | 0.04 | 0.04 | 85 | 1008.9 |
| 20260508234904 | 75 | 131 | 2.6 | 6.1 | 0.00 | 0.04 | 0.04 | 85 | 1009.4 |
| 20260508234404 | 75 | 150 | 1.7 | 4.3 | 0.00 | 0.04 | 0.04 | 85 | 1009.5 |
| 20260508233903 | 75 | 131 | 1.7 | 6.1 | 0.00 | 0.04 | 0.04 | 85 | 1009.4 |
| 20260508233404 | 75 | 154 | 1.7 | 6.1 | 0.00 | 0.04 | 0.04 | 85 | 1009.4 |
| 20260508232904 | 75 | 147 | 2.6 | 6.1 | 0.00 | 0.04 | 0.04 | 85 | 1009.4 |
| 20260508231903 | 76 | 154 | 1.7 | 7.0 | 0.00 | 0.04 | 0.04 | 84 | 1009.0 |
| 20260508231403 | 76 | 148 | 2.6 | 6.1 | 0.00 | 0.04 | 0.04 | 84 | 1009.3 |
| 20260508230903 | 76 | 159 | 0.9 | 6.1 | 0.00 | 0.04 | 0.04 | 84 | 1009.2 |
| 20260508230405 | 76 | 164 | 1.7 | 7.0 | 0.00 | 0.04 | 0.04 | 84 | 1009.1 |
| 20260508225904 | 76 | 124 | 0.9 | 7.0 | 0.00 | 0.04 | 0.04 | 84 | 1009.0 |
| 20260508225404 | 76 | 123 | 2.6 | 7.0 | 0.00 | 0.04 | 0.04 | 84 | 1009.0 |
| 20260508223904 | 76 | 97 | 1.7 | 6.1 | 0.00 | 0.04 | 0.04 | 83 | 1008.9 |
| 20260508223404 | 76 | 108 | 2.6 | 6.1 | 0.00 | 0.04 | 0.04 | 83 | 1008.9 |
| 20260508222904 | 76 | 132 | 2.6 | 6.1 | 0.00 | 0.04 | 0.04 | 83 | 1009.1 |
| 20260508222404 | 76 | 127 | 2.6 | 6.1 | 0.00 | 0.04 | 0.04 | 83 | 1009.1 |
| 20260508221904 | 76 | 145 | 1.7 | 4.3 | 0.00 | 0.04 | 0.04 | 83 | 1009.2 |
| 20260508221404 | 76 | 148 | 0.9 | 4.3 | 0.00 | 0.04 | 0.04 | 83 | 1009.2 |
| 20260508220404 | 76 | 82 | 0.9 | 4.3 | 0.00 | 0.04 | 0.04 | 83 | 1009.3 |
| 20260508215904 | 76 | 84 | 1.7 | 4.3 | 0.00 | 0.04 | 0.04 | 83 | 1009.3 |
| 20260508215404 | 75 | 87 | 0.9 | 2.6 | 0.00 | 0.04 | 0.04 | 83 | 1009.4 |
| 20260508214905 | 75 | 156 | 2.6 | 2.6 | 0.00 | 0.04 | 0.04 | 83 | 1009.5 |
| 20260508214404 | 75 | 141 | 1.7 | 4.3 | 0.00 | 0.04 | 0.04 | 83 | 1009.5 |
| 20260508213404 | 75 | 137 | 1.7 | 4.3 | 0.00 | 0.04 | 0.04 | 83 | 1009.5 |
| 20260508212905 | 75 | 81 | 0.9 | 2.6 | 0.00 | 0.04 | 0.04 | 83 | 1009.6 |
| 20260508212404 | 75 | 81 | 0.9 | 2.6 | 0.00 | 0.04 | 0.04 | 83 | 1009.6 |
| 20260508211904 | 75 | 79 | 0.9 | 4.3 | 0.00 | 0.04 | 0.04 | 83 | 1009.5 |
| 20260508211404 | 75 | 72 | 1.7 | 6.1 | 0.00 | 0.04 | 0.04 | 83 | 1009.6 |
| 20260508210904 | 75 | 91 | 1.7 | 6.1 | 0.00 | 0.04 | 0.04 | 84 | 1009.5 |
| 20260508210405 | 75 | 134 | 1.7 | 7.0 | 0.00 | 0.04 | 0.04 | 83 | 1009.6 |
| 20260508205904 | 75 | 148 | 1.7 | 7.0 | 0.00 | 0.04 | 0.04 | 83 | 1009.8 |
| 20260508204904 | 75 | 118 | 0.9 | 7.0 | 0.00 | 0.04 | 0.04 | 83 | 1009.7 |
| 20260508204404 | 75 | 127 | 2.6 | 7.0 | 0.00 | 0.04 | 0.04 | 84 | 1009.7 |
| 20260508203904 | 75 | 120 | 2.6 | 6.1 | 0.00 | 0.04 | 0.04 | 84 | 1009.6 |
| 20260508203404 | 75 | 109 | 1.7 | 4.3 | 0.00 | 0.04 | 0.04 | 84 | 1009.8 |
| 20260508202904 | 75 | 138 | 0.9 | 2.6 | 0.00 | 0.04 | 0.04 | 85 | 1009.8 |
| 20260508202405 | 74 | 137 | 0.9 | 4.3 | 0.00 | 0.04 | 0.04 | 84 | 1010.1 |
| 20260508201904 | 75 | 158 | 0.9 | 6.1 | 0.00 | 0.04 | 0.04 | 85 | 1010.3 |
| 20260508200904 | 75 | 142 | 1.7 | 6.1 | 0.00 | 0.04 | 0.04 | 86 | 1010.2 |
| 20260508200404 | 74 | 145 | 0.9 | 4.3 | 0.00 | 0.04 | 0.04 | 86 | 1010.3 |
| 20260508195904 | 74 | 71 | 2.6 | 4.3 | 0.00 | 0.04 | 0.04 | 86 | 1010.4 |
| 20260508195405 | 74 | 108 | 0.0 | 4.3 | 0.00 | 0.04 | 0.04 | 87 | 1010.5 |
| 20260508194404 | 73 | 72 | 0.9 | 4.3 | 0.00 | 0.04 | 0.04 | 87 | 1010.7 |
| 20260508193904 | 73 | 142 | 0.9 | 4.3 | 0.00 | 0.04 | 0.04 | 87 | 1010.6 |
| 20260508192905 | 73 | 62 | 2.6 | 6.1 | 0.00 | 0.04 | 0.04 | 88 | 1010.5 |
| 20260508192405 | 72 | 156 | 1.7 | 5.2 | 0.00 | 0.04 | 0.04 | 88 | 1010.3 |
| 20260508191405 | 72 | 131 | 1.7 | 7.8 | 0.00 | 0.04 | 0.04 | 89 | 1010.5 |
| 20260508190904 | 72 | 125 | 3.5 | 7.8 | 0.00 | 0.04 | 0.04 | 89 | 1010.5 |
| 20260508190404 | 71 | 149 | 2.6 | 7.0 | 0.00 | 0.04 | 0.04 | 90 | 1010.4 |
| 20260508185905 | 71 | 111 | 2.6 | 7.0 | 0.00 | 0.04 | 0.04 | 89 | 1010.6 |
| 20260508185404 | 71 | 148 | 2.6 | 5.2 | 0.00 | 0.04 | 0.04 | 89 | 1010.6 |
| 20260508184904 | 70 | 96 | 2.6 | 6.1 | 0.00 | 0.04 | 0.04 | 89 | 1010.5 |
| 20260508184405 | 70 | 78 | 1.7 | 6.1 | 0.00 | 0.04 | 0.04 | 89 | 1010.8 |
| 20260508183905 | 70 | 84 | 1.7 | 4.3 | 0.01 | 0.04 | 0.04 | 89 | 1010.9 |
| 20260508183404 | 69 | 50 | 0.9 | 4.3 | 0.01 | 0.04 | 0.04 | 89 | 1011.1 |
| 20260508182905 | 69 | 50 | 0.9 | 4.3 | 0.01 | 0.04 | 0.04 | 89 | 1011.2 |
| 20260508182404 | 69 | 56 | 0.9 | 2.6 | 0.01 | 0.04 | 0.04 | 89 | 1011.3 |
| 20260508181404 | 69 | 16 | 1.7 | 4.3 | 0.01 | 0.04 | 0.04 | 89 | 1011.5 |
| 20260508180903 | 69 | 32 | 0.9 | 2.6 | 0.01 | 0.04 | 0.04 | 89 | 1011.6 |
| 20260508180405 | 69 | 64 | 1.7 | 5.2 | 0.01 | 0.04 | 0.04 | 88 | 1011.6 |
| 20260508175904 | 69 | 77 | 1.7 | 5.2 | 0.02 | 0.04 | 0.04 | 88 | 1011.7 |
| 20260508174905 | 69 | 77 | 0.9 | 2.6 | 0.02 | 0.04 | 0.04 | 88 | 1011.7 |
| 20260508173905 | 69 | 77 | 1.7 | 7.8 | 0.01 | 0.03 | 0.03 | 88 | 1011.8 |
| 20260508173405 | 69 | 84 | 1.7 | 7.8 | 0.01 | 0.03 | 0.03 | 88 | 1011.8 |
| 20260508172904 | 69 | 71 | 1.7 | 7.8 | 0.01 | 0.03 | 0.03 | 88 | 1011.8 |
| 20260508172404 | 70 | 71 | 2.6 | 7.8 | 0.02 | 0.03 | 0.03 | 88 | 1011.6 |
| 20260508171904 | 70 | 106 | 2.6 | 7.0 | 0.02 | 0.03 | 0.03 | 88 | 1011.5 |
| 20260508171404 | 70 | 73 | 2.6 | 7.0 | 0.02 | 0.03 | 0.03 | 88 | 1011.4 |
| 20260508170903 | 70 | 71 | 0.9 | 2.6 | 0.02 | 0.03 | 0.03 | 88 | 1011.7 |
| 20260508165904 | 70 | 65 | 0.9 | 2.6 | 0.01 | 0.02 | 0.02 | 87 | 1012.2 |
| 20260508165404 | 70 | 64 | 0.9 | 2.6 | 0.01 | 0.02 | 0.02 | 87 | 1012.4 |
| 20260508164904 | 70 | 65 | 0.9 | 2.6 | 0.01 | 0.02 | 0.02 | 87 | 1012.4 |
| 20260508164404 | 70 | 71 | 0.9 | 2.6 | 0.01 | 0.02 | 0.02 | 87 | 1012.4 |
| 20260508163904 | 70 | 70 | 0.9 | 4.3 | 0.01 | 0.02 | 0.02 | 87 | 1012.3 |
| 20260508163404 | 70 | 101 | 0.9 | 4.3 | 0.01 | 0.02 | 0.02 | 87 | 1012.4 |
| 20260508162903 | 70 | 82 | 1.7 | 4.3 | 0.01 | 0.02 | 0.02 | 87 | 1012.7 |
| 20260508162404 | 70 | 87 | 1.7 | 5.2 | 0.00 | 0.01 | 0.01 | 87 | 1012.9 |
| 20260508161904 | 70 | 34 | 1.7 | 5.2 | 0.00 | 0.01 | 0.01 | 87 | 1012.9 |
| 20260508161404 | 70 | 56 | 0.9 | 5.2 | 0.00 | 0.01 | 0.01 | 87 | 1012.9 |
| 20260508160404 | 70 | 50 | 1.7 | 5.2 | 0.00 | 0.01 | 0.01 | 88 | 1012.9 |
| 20260508155904 | 69 | 93 | 0.9 | 5.2 | 0.00 | 0.01 | 0.01 | 88 | 1012.7 |
| 20260508155405 | 69 | 72 | 1.7 | 5.2 | 0.00 | 0.01 | 0.01 | 88 | 1012.6 |
| 20260508154903 | 69 | 53 | 1.7 | 7.8 | 0.00 | 0.01 | 0.01 | 88 | 1013.0 |
| 20260508154404 | 69 | 55 | 2.6 | 7.8 | 0.00 | 0.01 | 0.01 | 88 | 1013.2 |
| 20260508153905 | 69 | 62 | 2.6 | 7.0 | 0.00 | 0.01 | 0.01 | 88 | 1013.3 |
| 20260508153404 | 69 | 4 | 2.6 | 7.0 | 0.00 | 0.01 | 0.01 | 88 | 1013.2 |
| 20260508152905 | 69 | 52 | 2.6 | 7.8 | 0.00 | 0.01 | 0.01 | 88 | 1012.9 |
| 20260508151905 | 69 | 61 | 0.9 | 4.3 | 0.00 | 0.01 | 0.01 | 89 | 1012.8 |
| 20260508151404 | 68 | 25 | 1.7 | 4.3 | 0.00 | 0.01 | 0.01 | 88 | 1012.7 |
| 20260508150904 | 68 | 48 | 1.7 | 7.0 | 0.00 | 0.01 | 0.01 | 88 | 1012.7 |
| 20260508150404 | 68 | 24 | 2.6 | 7.0 | 0.00 | 0.01 | 0.01 | 88 | 1012.7 |
| 20260508145904 | 68 | 74 | 1.7 | 6.1 | 0.00 | 0.01 | 0.01 | 88 | 1012.6 |
| 20260508145404 | 68 | 42 | 2.6 | 6.1 | 0.00 | 0.01 | 0.01 | 88 | 1012.8 |
| 20260508144905 | 68 | 37 | 2.6 | 6.1 | 0.00 | 0.01 | 0.01 | 88 | 1013.0 |
| 20260508144404 | 69 | 68 | 1.7 | 2.6 | 0.00 | 0.01 | 0.01 | 88 | 1013.2 |
| 20260508143904 | 69 | 71 | 1.7 | 2.6 | 0.00 | 0.01 | 0.01 | 88 | 1013.1 |
| 20260508143404 | 69 | 61 | 0.9 | 2.6 | 0.00 | 0.01 | 0.01 | 88 | 1013.2 |
| 20260508142904 | 69 | 61 | 2.6 | 2.6 | 0.00 | 0.01 | 0.01 | 88 | 1013.1 |
| 20260508142403 | 69 | 58 | 0.0 | 2.6 | 0.00 | 0.01 | 0.01 | 88 | 1013.2 |
| 20260508141904 | 68 | 65 | 0.9 | 2.6 | 0.00 | 0.01 | 0.01 | 88 | 1013.2 |
| 20260508141404 | 68 | 68 | 0.9 | 2.6 | 0.00 | 0.01 | 0.01 | 88 | 1013.3 |
| 20260508140904 | 68 | 71 | 0.0 | 1.7 | 0.00 | 0.01 | 0.01 | 88 | 1012.8 |
| 20260508135905 | 68 | 71 | 0.0 | 1.7 | 0.00 | 0.01 | 0.01 | 88 | 1012.7 |
| 20260508135404 | 68 | 71 | 0.9 | 1.7 | 0.00 | 0.01 | 0.01 | 88 | 1012.6 |
| 20260508134904 | 68 | 71 | 0.9 | 1.7 | 0.00 | 0.01 | 0.01 | 88 | 1012.8 |
| 20260508134405 | 68 | 71 | 0.9 | 2.6 | 0.00 | 0.01 | 0.01 | 88 | 1012.8 |
| 20260508133904 | 68 | 73 | 1.7 | 2.6 | 0.00 | 0.01 | 0.01 | 88 | 1012.8 |
| 20260508133404 | 68 | 73 | 0.9 | 1.7 | 0.00 | 0.01 | 0.01 | 88 | 1013.0 |
| 20260508131404 | 68 | 33 | 0.9 | 2.6 | 0.00 | 0.01 | 0.01 | 88 | 1012.9 |
| 20260508125903 | 68 | 43 | 1.7 | 4.3 | 0.00 | 0.01 | 0.01 | 88 | 1012.5 |
| 20260508125404 | 68 | 58 | 0.9 | 5.2 | 0.00 | 0.01 | 0.01 | 88 | 1012.5 |
| 20260508124904 | 68 | 79 | 1.7 | 5.2 | 0.00 | 0.01 | 0.01 | 88 | 1012.6 |
| 20260508124404 | 68 | 85 | 1.7 | 5.2 | 0.00 | 0.01 | 0.01 | 88 | 1012.7 |
| 20260508123904 | 68 | 23 | 1.7 | 5.2 | 0.00 | 0.01 | 0.01 | 88 | 1012.9 |
| 20260508123405 | 68 | 50 | 1.7 | 4.3 | 0.00 | 0.01 | 0.01 | 88 | 1013.0 |
| 20260508122905 | 68 | 338 | 2.6 | 4.3 | 0.00 | 0.01 | 0.01 | 88 | 1013.0 |
| 20260508122404 | 68 | 77 | 0.9 | 4.3 | 0.00 | 0.01 | 0.01 | 88 | 1012.9 |
| 20260508121904 | 68 | 13 | 1.7 | 4.3 | 0.00 | 0.01 | 0.01 | 88 | 1013.0 |
| 20260508121404 | 68 | 50 | 0.9 | 4.3 | 0.00 | 0.01 | 0.01 | 88 | 1012.8 |
| 20260508120904 | 68 | 39 | 2.6 | 4.3 | 0.00 | 0.01 | 0.01 | 88 | 1012.7 |
| 20260508120404 | 68 | 4 | 1.7 | 4.3 | 0.00 | 0.01 | 0.01 | 88 | 1012.6 |
| 20260508115903 | 68 | 4 | 1.7 | 4.3 | 0.00 | 0.01 | 0.01 | 88 | 1012.5 |
| 20260508115404 | 68 | 77 | 2.6 | 4.3 | 0.00 | 0.01 | 0.01 | 88 | 1012.4 |
| 20260508114404 | 68 | 69 | 1.7 | 4.3 | 0.00 | 0.01 | 0.01 | 88 | 1012.4 |
| 20260508113903 | 69 | 64 | 1.7 | 2.6 | 0.00 | 0.01 | 0.01 | 88 | 1012.5 |
| 20260508113405 | 69 | 35 | 0.9 | 2.6 | 0.00 | 0.01 | 0.01 | 88 | 1012.7 |
| 20260508112904 | 69 | 43 | 1.7 | 2.6 | 0.00 | 0.01 | 0.01 | 88 | 1012.8 |
| 20260508112404 | 69 | 58 | 0.9 | 2.6 | 0.00 | 0.01 | 0.01 | 88 | 1012.7 |
| 20260508111904 | 69 | 29 | 0.9 | 2.6 | 0.00 | 0.01 | 0.01 | 87 | 1012.9 |
| 20260508111404 | 69 | 23 | 0.9 | 2.6 | 0.00 | 0.01 | 0.01 | 87 | 1012.8 |
| 20260508110904 | 69 | 13 | 1.7 | 2.6 | 0.00 | 0.01 | 0.01 | 87 | 1012.8 |
| 20260508110404 | 69 | 13 | 0.0 | 2.6 | 0.00 | 0.01 | 0.01 | 87 | 1012.9 |
| 20260508105904 | 69 | 13 | 1.7 | 2.6 | 0.00 | 0.01 | 0.01 | 87 | 1012.6 |
| 20260508103904 | 69 | 94 | 0.9 | 4.3 | 0.01 | 0.01 | 0.01 | 87 | 1012.0 |
| 20260508103405 | 69 | 73 | 0.9 | 5.2 | 0.01 | 0.01 | 0.01 | 87 | 1011.9 |
| 20260508102903 | 69 | 93 | 1.7 | 5.2 | 0.01 | 0.01 | 0.01 | 87 | 1012.1 |
| 20260508101904 | 70 | 73 | 0.9 | 4.3 | 0.01 | 0.01 | 0.01 | 86 | 1012.1 |
| 20260508101404 | 70 | 83 | 0.9 | 2.6 | 0.01 | 0.01 | 0.01 | 86 | 1012.1 |
| 20260508100904 | 70 | 82 | 0.9 | 2.6 | 0.01 | 0.01 | 0.01 | 86 | 1012.3 |
| 20260508100404 | 70 | 117 | 1.7 | 2.6 | 0.01 | 0.01 | 0.01 | 86 | 1012.2 |
| 20260508095904 | 70 | 94 | 0.9 | 2.6 | 0.01 | 0.01 | 0.01 | 85 | 1012.2 |
| 20260508095404 | 71 | 22 | 0.9 | 2.6 | 0.01 | 0.01 | 0.01 | 85 | 1012.3 |
| 20260508094904 | 71 | 2 | 1.7 | 4.3 | 0.01 | 0.01 | 0.01 | 85 | 1012.5 |
| 20260508094405 | 71 | 33 | 1.7 | 4.3 | 0.00 | 0.00 | 0.00 | 85 | 1012.5 |
| 20260508093904 | 71 | 57 | 2.6 | 4.3 | 0.00 | 0.00 | 0.00 | 84 | 1012.5 |
| 20260508093405 | 72 | 54 | 0.9 | 2.6 | 0.00 | 0.00 | 0.00 | 85 | 1012.5 |
| 20260508092904 | 72 | 27 | 1.7 | 2.6 | 0.00 | 0.00 | 0.00 | 84 | 1012.4 |
| 20260508091905 | 73 | 358 | 1.7 | 2.6 | 0.00 | 0.00 | 0.00 | 84 | 1012.5 |
| 20260508091404 | 73 | 34 | 0.9 | 2.6 | 0.00 | 0.00 | 0.00 | 84 | 1012.6 |
| 20260508090905 | 73 | 97 | 1.7 | 2.6 | 0.00 | 0.00 | 0.00 | 84 | 1012.5 |
| 20260508090404 | 73 | 98 | 0.9 | 4.3 | 0.00 | 0.00 | 0.00 | 83 | 1012.4 |
| 20260508085905 | 74 | 98 | 1.7 | 4.3 | 0.00 | 0.00 | 0.00 | 83 | 1012.4 |
| 20260508085404 | 74 | 104 | 0.9 | 5.2 | 0.00 | 0.00 | 0.00 | 83 | 1012.4 |
| 20260508084903 | 74 | 65 | 0.0 | 5.2 | 0.00 | 0.00 | 0.00 | 82 | 1012.3 |
| 20260508084404 | 74 | 116 | 0.9 | 2.6 | 0.00 | 0.00 | 0.00 | 82 | 1012.4 |
| 20260508083904 | 74 | 97 | 1.7 | 6.1 | 0.00 | 0.00 | 0.00 | 82 | 1012.5 |
| 20260508083404 | 74 | 106 | 0.9 | 7.0 | 0.00 | 0.00 | 0.00 | 82 | 1012.5 |
| 20260508082904 | 74 | 160 | 2.6 | 7.0 | 0.00 | 0.00 | 0.00 | 81 | 1012.5 |
| 20260508082404 | 74 | 147 | 1.7 | 6.1 | 0.00 | 0.00 | 0.00 | 81 | 1012.4 |
| 20260508081904 | 74 | 151 | 0.9 | 6.1 | 0.00 | 0.00 | 0.00 | 81 | 1012.5 |
| 20260508081405 | 74 | 116 | 1.7 | 6.1 | 0.00 | 0.00 | 0.00 | 81 | 1012.6 |
| 20260508080904 | 74 | 137 | 0.9 | 2.6 | 0.00 | 0.00 | 0.00 | 81 | 1012.6 |
| 20260508080404 | 74 | 119 | 0.9 | 6.1 | 0.00 | 0.00 | 0.00 | 81 | 1012.4 |
| 20260508075905 | 74 | 119 | 1.7 | 6.1 | 0.00 | 0.00 | 0.00 | 81 | 1012.3 |
| 20260508075404 | 74 | 151 | 0.9 | 6.1 | 0.00 | 0.00 | 0.00 | 81 | 1012.3 |
| 20260508073903 | 74 | 152 | 1.7 | 6.1 | 0.00 | 0.00 | 0.00 | 81 | 1012.5 |
| 20260508073403 | 74 | 139 | 2.6 | 6.1 | 0.00 | 0.00 | 0.00 | 81 | 1012.5 |
| 20260508072404 | 74 | 148 | 0.9 | 2.6 | 0.00 | 0.00 | 0.00 | 80 | 1012.8 |
| 20260508071904 | 74 | 149 | 0.9 | 1.7 | 0.00 | 0.00 | 0.00 | 80 | 1012.9 |
| 20260508071404 | 74 | 149 | 0.0 | 2.6 | 0.00 | 0.00 | 0.00 | 80 | 1012.9 |
| 20260508070904 | 74 | 149 | 0.9 | 4.3 | 0.00 | 0.00 | 0.00 | 79 | 1012.7 |
| 20260508070404 | 74 | 92 | 0.0 | 4.3 | 0.00 | 0.00 | 0.00 | 79 | 1012.7 |
| 20260508065905 | 74 | 82 | 1.7 | 4.3 | 0.00 | 0.00 | 0.00 | 79 | 1012.4 |
| 20260508064905 | 74 | 359 | 0.9 | 4.3 | 0.00 | 0.00 | 0.00 | 79 | 1012.6 |
| 20260508064404 | 74 | 25 | 1.7 | 4.3 | 0.00 | 0.00 | 0.00 | 79 | 1012.8 |
| 20260508063905 | 74 | 90 | 0.9 | 4.3 | 0.00 | 0.00 | 0.00 | 79 | 1012.4 |
| 20260508063404 | 74 | 79 | 1.7 | 2.6 | 0.00 | 0.00 | 0.00 | 79 | 1012.6 |
| 20260508062904 | 74 | 99 | 1.7 | 2.6 | 0.00 | 0.00 | 0.00 | 79 | 1013.1 |
| 20260508062404 | 74 | 115 | 0.9 | 2.6 | 0.00 | 0.00 | 0.00 | 79 | 1013.1 |
| 20260508061404 | 74 | 69 | 0.9 | 2.6 | 0.00 | 0.00 | 0.00 | 78 | 1013.3 |
| 20260508060905 | 74 | 77 | 0.9 | 2.6 | 0.00 | 0.00 | 0.00 | 78 | 1013.3 |
| 20260508060403 | 74 | 74 | 1.7 | 4.3 | 0.00 | 0.00 | 0.00 | 78 | 1013.1 |
| 20260508055905 | 74 | 100 | 1.7 | 4.3 | 0.00 | 0.00 | 0.00 | 78 | 1013.1 |
| 20260508055404 | 74 | 133 | 0.9 | 2.6 | 0.00 | 0.00 | 0.00 | 78 | 1013.1 |
| 20260508054904 | 74 | 92 | 1.7 | 2.6 | 0.00 | 0.00 | 0.00 | 78 | 1013.0 |
| 20260508054404 | 74 | 64 | 0.9 | 2.6 | 0.00 | 0.00 | 0.00 | 78 | 1013.0 |
| 20260508053904 | 74 | 59 | 0.9 | 4.3 | 0.00 | 0.00 | 0.00 | 78 | 1013.0 |
| 20260508053404 | 74 | 90 | 1.7 | 4.3 | 0.00 | 0.00 | 0.00 | 78 | 1012.5 |
| 20260508052904 | 74 | 76 | 1.7 | 4.3 | 0.00 | 0.00 | 0.00 | 78 | 1012.3 |
| 20260508052404 | 74 | 86 | 1.7 | 4.3 | 0.00 | 0.00 | 0.00 | 78 | 1012.6 |
| 20260508051905 | 74 | 94 | 0.9 | 4.3 | 0.00 | 0.00 | 0.00 | 78 | 1012.7 |
| 20260508051404 | 74 | 99 | 0.9 | 4.3 | 0.00 | 0.00 | 0.00 | 78 | 1012.6 |
| 20260508050904 | 74 | 68 | 1.7 | 7.0 | 0.00 | 0.00 | 0.00 | 78 | 1012.8 |
| 20260508050404 | 74 | 90 | 2.6 | 7.0 | 0.00 | 0.00 | 0.00 | 78 | 1012.6 |
| 20260508045404 | 74 | 143 | 2.6 | 5.2 | 0.00 | 0.00 | 0.00 | 77 | 1012.6 |
| 20260508044905 | 74 | 98 | 0.9 | 5.2 | 0.00 | 0.00 | 0.00 | 76 | 1012.6 |
| 20260508042904 | 74 | 116 | 0.9 | 4.3 | 0.00 | 0.00 | 0.00 | 74 | 1013.0 |
| 20260508042404 | 74 | 121 | 0.9 | 6.1 | 0.00 | 0.00 | 0.00 | 74 | 1013.1 |
| 20260508041903 | 74 | 113 | 0.9 | 6.1 | 0.00 | 0.00 | 0.00 | 73 | 1013.2 |
| 20260508041403 | 75 | 106 | 1.7 | 6.1 | 0.00 | 0.00 | 0.00 | 73 | 1013.4 |
| 20260508040905 | 75 | 91 | 2.6 | 6.1 | 0.00 | 0.00 | 0.00 | 74 | 1013.6 |
| 20260508040404 | 75 | 118 | 2.6 | 6.1 | 0.00 | 0.00 | 0.00 | 74 | 1013.7 |
| 20260508035904 | 75 | 64 | 1.7 | 4.3 | 0.00 | 0.00 | 0.00 | 74 | 1013.8 |
| 20260508035405 | 75 | 79 | 1.7 | 4.3 | 0.00 | 0.00 | 0.00 | 73 | 1013.9 |
| 20260508034904 | 75 | 85 | 0.9 | 6.1 | 0.00 | 0.00 | 0.00 | 74 | 1014.0 |
| 20260508034404 | 75 | 100 | 0.9 | 6.1 | 0.00 | 0.00 | 0.00 | 74 | 1013.9 |
| 20260508033904 | 75 | 80 | 1.7 | 4.3 | 0.00 | 0.00 | 0.00 | 73 | 1013.9 |
| 20260508032904 | 75 | 71 | 0.9 | 6.1 | 0.00 | 0.00 | 0.00 | 73 | 1013.8 |
| 20260508032404 | 75 | 99 | 2.6 | 6.1 | 0.00 | 0.00 | 0.00 | 72 | 1013.9 |
| 20260508031904 | 75 | 100 | 2.6 | 6.1 | 0.00 | 0.00 | 0.00 | 72 | 1013.7 |
| 20260508031404 | 75 | 70 | 0.9 | 6.1 | 0.00 | 0.00 | 0.00 | 72 | 1013.8 |
| 20260508030904 | 75 | 130 | 2.6 | 6.1 | 0.00 | 0.00 | 0.00 | 72 | 1013.7 |
| 20260508030404 | 76 | 96 | 2.6 | 4.3 | 0.00 | 0.00 | 0.00 | 71 | 1013.6 |
| 20260508025904 | 76 | 97 | 1.7 | 4.3 | 0.00 | 0.00 | 0.00 | 71 | 1013.4 |
| 20260508024904 | 76 | 57 | 0.9 | 4.3 | 0.00 | 0.00 | 0.00 | 71 | 1013.7 |
| 20260508024404 | 76 | 56 | 1.7 | 4.3 | 0.00 | 0.00 | 0.00 | 70 | 1013.6 |
| 20260508023905 | 76 | 74 | 0.9 | 6.1 | 0.00 | 0.00 | 0.00 | 70 | 1013.6 |
| 20260508023404 | 76 | 74 | 1.7 | 6.1 | 0.00 | 0.00 | 0.00 | 70 | 1013.5 |
| 20260508022904 | 76 | 74 | 1.7 | 4.3 | 0.00 | 0.00 | 0.00 | 70 | 1013.5 |
| 20260508022405 | 76 | 84 | 1.7 | 5.2 | 0.00 | 0.00 | 0.00 | 70 | 1013.6 |
| 20260508021905 | 76 | 81 | 2.6 | 5.2 | 0.00 | 0.00 | 0.00 | 70 | 1013.6 |
| 20260508021404 | 76 | 85 | 1.7 | 2.6 | 0.00 | 0.00 | 0.00 | 70 | 1013.5 |
| 20260508020905 | 76 | 89 | 1.7 | 4.3 | 0.00 | 0.00 | 0.00 | 70 | 1013.4 |